Weather History for Fayetteville, AR

Change the Weather History Date:

Monday, October 8, 2012

  Actual Average Record
Temperature  
Mean Temperature 45 °F 60 °F  
Max Temperature 59 °F 72 °F 93 °F (1963)
Min Temperature 33 °F 48 °F 25 °F (1952)
Degree Days  
Heating Degree Days 20 6  
Month to date heating degree days 43  
Since 1 July heating degree days 95  
Cooling Degree Days 0 1  
Month to date cooling degree days 11  
Year to date cooling degree days 1294  
Moisture  
Dew Point 36 °F    
Average Humidity 83    
Maximum Humidity 100    
Minimum Humidity 44    
Precipitation  
Precipitation 0.00 in 0.15 in 1.95 in (1997)
Month to date precipitation 1.18  
Year to date precipitation 37.89  
Sea Level Pressure  
Sea Level Pressure 30.19 in    
Wind  
Wind Speed 2 mph (South)    
Max Wind Speed 10 mph    
Max Gust Speed -    
Visibility 7 miles    
Events Fog    
T = Trace of Precipitation, MM = Missing Value Source: NWS Daily Summary

Daily Weather History Graph

Daily Weather History Graph

Search for Another Location

Airport:

Trip Planner

Search our weather history database for the weather conditions in past years. The results will help you decide how hot, cold, wet, or windy it might be!

Date:

Astronomy

Oct. 08, 2012 Rise Set
Actual Time 7:17 AM CDT 6:49 PM CDT
Civil Twilight 6:52 AM CDT 7:15 PM CDT
Nautical Twilight 6:22 AM CDT 7:44 PM CDT
Astronomical Twilight 5:52 AM CDT 8:14 PM CDT
Moon 12:10 AM CDT (10/8) 2:28 PM CDT (10/8)
Length of Visible Light 12h 23m
Length of Day
11h 31m
Last Quarter, 46% of the Moon is Illuminated
Oct 8
Last Quarter
Oct 15
New
Oct 21
First Quarter
Oct 29
Full
Nov 6
Last Quarter

Hourly Weather History & Observations

Time (CDT) Temp. Windchill Dew Point Humidity Pressure Visibility Wind Dir Wind Speed Gust Speed Precip Events Conditions
12:53 AM 39.9 °F 37.8 °F 37.0 °F 89% 30.25 in 10.0 mi SSW 3.5 mph - N/A   Clear
1:53 AM 37.9 °F - 37.0 °F 97% 30.24 in 10.0 mi Calm Calm - N/A   Clear
2:53 AM 35.1 °F - 33.1 °F 92% 30.23 in 9.0 mi Calm Calm - N/A   Clear
3:19 AM 33.8 °F - 33.8 °F 100% 30.22 in 2.5 mi Calm Calm - N/A   Scattered Clouds
3:32 AM 33.8 °F - 33.8 °F 100% 30.22 in 5.0 mi Calm Calm - N/A   Scattered Clouds
3:46 AM 33.8 °F - 33.8 °F 100% 30.22 in 2.0 mi Calm Calm - N/A   Mostly Cloudy
3:53 AM 34.0 °F - 33.1 °F 96% 30.23 in 1.5 mi Calm Calm - N/A   Mostly Cloudy
4:05 AM 33.8 °F - 33.8 °F 100% 30.22 in 0.5 mi Calm Calm - N/A Fog Fog
4:53 AM 34.0 °F - 34.0 °F 100% 30.23 in 0.2 mi Calm Calm - N/A Fog Fog
5:53 AM 33.1 °F 30.0 °F 33.1 °F 100% 30.23 in 0.2 mi SSE 3.5 mph - N/A Fog Fog
6:53 AM 34.0 °F 31.0 °F 34.0 °F 100% 30.25 in 0.2 mi South 3.5 mph - N/A Fog Fog
7:53 AM 34.0 °F 31.0 °F 34.0 °F 100% 30.25 in 0.2 mi SSE 3.5 mph - N/A Fog Fog
8:53 AM 35.1 °F - 35.1 °F 100% 30.26 in 0.2 mi Calm Calm - N/A Fog Fog
9:14 AM 37.4 °F - 37.4 °F 100% 30.24 in 2.0 mi Calm Calm - N/A   Overcast
9:21 AM 37.4 °F - 37.4 °F 100% 30.24 in 6.0 mi Calm Calm - N/A   Mostly Cloudy
9:41 AM 39.2 °F - 39.2 °F 100% 30.24 in 10.0 mi Calm Calm - N/A   Clear
9:53 AM 42.1 °F 40.2 °F 39.9 °F 92% 30.25 in 10.0 mi SSE 3.5 mph - N/A   Clear
10:53 AM 50.0 °F - 37.9 °F 63% 30.23 in 10.0 mi Variable 5.8 mph - N/A   Clear
11:53 AM 53.1 °F - 37.9 °F 57% 30.22 in 10.0 mi SW 9.2 mph - N/A   Scattered Clouds
12:53 PM 54.0 °F - 39.0 °F 57% 30.21 in 10.0 mi WSW 6.9 mph - N/A   Partly Cloudy
1:53 PM 57.0 °F - 37.9 °F 49% 30.17 in 10.0 mi South 8.1 mph - N/A   Clear
2:53 PM 57.0 °F - 35.1 °F 44% 30.15 in 10.0 mi South 10.4 mph - N/A   Clear
3:53 PM 57.9 °F - 37.0 °F 46% 30.13 in 10.0 mi SSW 10.4 mph - N/A   Clear
4:53 PM 57.0 °F - 36.0 °F 45% 30.11 in 10.0 mi SSW 9.2 mph - N/A   Clear
5:53 PM 55.9 °F - 37.0 °F 49% 30.10 in 10.0 mi SSW 8.1 mph - N/A   Clear
6:53 PM 50.0 °F - 37.9 °F 63% 30.10 in 10.0 mi SSE 3.5 mph - N/A   Clear
7:53 PM 43.0 °F - 37.9 °F 82% 30.10 in 10.0 mi Calm Calm - N/A   Clear
8:53 PM 42.8 °F - 37.4 °F 81% 30.09 in 10.0 mi Calm Calm - N/A   Clear
9:53 PM 39.9 °F - 37.9 °F 93% 30.11 in 10.0 mi Calm Calm - N/A   Clear
10:53 PM 39.0 °F - 37.0 °F 93% 30.10 in 10.0 mi Calm Calm - N/A   Clear
11:53 PM 37.0 °F - 36.0 °F 96% 30.09 in 10.0 mi Calm Calm - N/A   Clear